TimeCDT,TemperatureF,Dew PointF,Humidity,Sea Level PressureIn,VisibilityMPH,Wind Direction,Wind SpeedMPH,Gust SpeedMPH,PrecipitationIn,Events,Conditions,WindDirDegrees,DateUTC
12:15 AM,69.8,60.8,73,30.10,10.0,Calm,Calm,-,N/A,,Unknown,0,2013-08-17 05:15:00
12:35 AM,68.0,60.8,78,30.10,10.0,Calm,Calm,-,N/A,,Unknown,0,2013-08-17 05:35:00
12:55 AM,66.2,60.8,83,30.10,10.0,Calm,Calm,-,N/A,,Unknown,0,2013-08-17 05:55:00
1:15 AM,66.2,60.8,83,30.10,10.0,Calm,Calm,-,N/A,,Unknown,0,2013-08-17 06:15:00
1:35 AM,66.2,60.8,83,30.09,10.0,Calm,Calm,-,N/A,,Unknown,0,2013-08-17 06:35:00
1:55 AM,66.2,60.8,83,30.09,10.0,Calm,Calm,-,N/A,,Unknown,0,2013-08-17 06:55:00
2:15 AM,64.4,60.8,88,30.09,10.0,Calm,Calm,-,N/A,,Unknown,0,2013-08-17 07:15:00
2:35 AM,64.4,60.8,88,30.08,10.0,Calm,Calm,-,N/A,,Unknown,0,2013-08-17 07:35:00
2:55 AM,64.4,60.8,88,30.08,10.0,Calm,Calm,-,N/A,,Unknown,0,2013-08-17 07:55:00
3:15 AM,62.6,60.8,94,30.08,10.0,Calm,Calm,-,N/A,,Unknown,0,2013-08-17 08:15:00
3:35 AM,62.6,60.8,94,30.08,10.0,Calm,Calm,-,N/A,,Unknown,0,2013-08-17 08:35:00
3:55 AM,62.6,60.8,94,30.08,10.0,Calm,Calm,-,N/A,,Unknown,0,2013-08-17 08:55:00
4:15 AM,62.6,60.8,94,30.08,10.0,Calm,Calm,-,N/A,,Unknown,0,2013-08-17 09:15:00
4:35 AM,60.8,59.0,94,30.08,9.0,Calm,Calm,-,N/A,,Unknown,0,2013-08-17 09:35:00
4:55 AM,62.6,60.8,94,30.08,10.0,Calm,Calm,-,N/A,,Unknown,0,2013-08-17 09:55:00
5:15 AM,62.6,60.8,94,30.08,10.0,Calm,Calm,-,N/A,,Unknown,0,2013-08-17 10:15:00
5:35 AM,60.8,59.0,94,30.08,10.0,Calm,Calm,-,N/A,,Unknown,0,2013-08-17 10:35:00
5:55 AM,60.8,59.0,94,30.08,10.0,Calm,Calm,-,N/A,,Unknown,0,2013-08-17 10:55:00
6:15 AM,60.8,59.0,94,30.08,10.0,Calm,Calm,-,N/A,,Unknown,0,2013-08-17 11:15:00
6:35 AM,60.8,59.0,94,30.08,9.0,Calm,Calm,-,N/A,,Unknown,0,2013-08-17 11:35:00
6:55 AM,60.8,59.0,94,30.09,7.0,Calm,Calm,-,N/A,,Unknown,0,2013-08-17 11:55:00
7:15 AM,60.8,60.8,100,30.09,6.0,Calm,Calm,-,N/A,,Mist,0,2013-08-17 12:15:00
7:35 AM,62.6,60.8,94,30.09,8.0,Calm,Calm,-,N/A,,Unknown,0,2013-08-17 12:35:00
7:55 AM,62.6,60.8,94,30.10,9.0,Calm,Calm,-,N/A,,Unknown,0,2013-08-17 12:55:00
8:15 AM,66.2,60.8,83,30.10,10.0,Calm,Calm,-,N/A,,Unknown,0,2013-08-17 13:15:00
8:35 AM,66.2,60.8,83,30.10,10.0,Calm,Calm,-,N/A,,Unknown,0,2013-08-17 13:35:00
8:55 AM,69.8,60.8,73,30.10,10.0,Calm,Calm,-,N/A,,Unknown,0,2013-08-17 13:55:00
9:15 AM,71.6,60.8,69,30.11,10.0,Calm,Calm,-,N/A,,Unknown,0,2013-08-17 14:15:00
9:35 AM,73.4,62.6,69,30.10,10.0,Calm,Calm,-,N/A,,Unknown,0,2013-08-17 14:35:00
9:55 AM,75.2,62.6,65,30.10,10.0,Calm,Calm,-,N/A,,Unknown,0,2013-08-17 14:55:00
10:15 AM,75.2,62.6,65,30.10,10.0,ENE,3.5,-,N/A,,Unknown,70,2013-08-17 15:15:00
10:35 AM,77.0,62.6,61,30.10,10.0,North,4.6,-,N/A,,Unknown,360,2013-08-17 15:35:00
10:55 AM,77.0,60.8,57,30.11,10.0,North,8.1,-,N/A,,Unknown,350,2013-08-17 15:55:00
11:15 AM,78.8,60.8,54,30.10,10.0,Calm,Calm,-,N/A,,Unknown,0,2013-08-17 16:15:00
11:35 AM,78.8,59.0,51,30.09,10.0,North,8.1,-,N/A,,Unknown,350,2013-08-17 16:35:00
11:55 AM,80.6,60.8,51,30.09,10.0,NNE,5.8,-,N/A,,Unknown,30,2013-08-17 16:55:00
12:15 PM,80.6,59.0,48,30.08,10.0,NE,6.9,-,N/A,,Unknown,40,2013-08-17 17:15:00
12:35 PM,82.4,59.0,45,30.08,9.0,ENE,3.5,-,N/A,,Unknown,60,2013-08-17 17:35:00
12:55 PM,82.4,60.8,48,30.07,10.0,NNE,4.6,-,N/A,,Unknown,30,2013-08-17 17:55:00
1:15 PM,82.4,60.8,48,30.06,10.0,North,5.8,-,N/A,,Unknown,10,2013-08-17 18:15:00
1:35 PM,84.2,59.0,42,30.06,10.0,North,10.4,-,N/A,,Unknown,350,2013-08-17 18:35:00
1:55 PM,84.2,57.2,40,30.05,10.0,North,4.6,-,N/A,,Unknown,10,2013-08-17 18:55:00
2:15 PM,84.2,57.2,40,30.04,10.0,North,10.4,-,N/A,,Unknown,350,2013-08-17 19:15:00
2:35 PM,86.0,57.2,37,30.03,10.0,North,6.9,-,N/A,,Unknown,10,2013-08-17 19:35:00
2:55 PM,87.8,57.2,35,30.02,10.0,North,9.2,-,N/A,,Unknown,10,2013-08-17 19:55:00
3:15 PM,87.8,57.2,35,30.02,10.0,NNE,5.8,-,N/A,,Unknown,20,2013-08-17 20:15:00
3:35 PM,87.8,57.2,35,30.01,10.0,NE,3.5,-,N/A,,Unknown,40,2013-08-17 20:35:00
3:55 PM,87.8,55.4,33,30.01,10.0,North,11.5,-,N/A,,Unknown,360,2013-08-17 20:55:00
4:15 PM,87.8,55.4,33,30.00,10.0,North,12.7,-,N/A,,Unknown,350,2013-08-17 21:15:00
4:35 PM,89.6,55.4,31,30.00,10.0,North,5.8,-,N/A,,Unknown,10,2013-08-17 21:35:00
4:55 PM,87.8,55.4,33,30.00,10.0,NE,4.6,-,N/A,,Unknown,40,2013-08-17 21:55:00
5:15 PM,87.8,55.4,33,29.99,10.0,East,5.8,-,N/A,,Unknown,80,2013-08-17 22:15:00
5:35 PM,87.8,55.4,33,29.99,10.0,NNE,4.6,-,N/A,,Unknown,20,2013-08-17 22:35:00
5:55 PM,87.8,57.2,35,29.99,10.0,ENE,4.6,-,N/A,,Unknown,70,2013-08-17 22:55:00
6:15 PM,87.8,57.2,35,29.99,10.0,NE,3.5,-,N/A,,Unknown,40,2013-08-17 23:15:00
6:35 PM,86.0,57.2,37,29.99,10.0,NE,4.6,-,N/A,,Unknown,50,2013-08-17 23:35:00
6:55 PM,86.0,57.2,37,29.99,10.0,ENE,5.8,-,N/A,,Unknown,60,2013-08-17 23:55:00
7:15 PM,84.2,57.2,40,29.99,10.0,Calm,Calm,-,N/A,,Unknown,0,2013-08-18 00:15:00
7:35 PM,84.2,57.2,40,30.00,10.0,ENE,4.6,-,N/A,,Unknown,70,2013-08-18 00:35:00
7:55 PM,82.4,57.2,42,30.01,10.0,Calm,Calm,-,N/A,,Unknown,0,2013-08-18 00:55:00
8:15 PM,80.6,59.0,48,30.01,10.0,Calm,Calm,-,N/A,,Unknown,0,2013-08-18 01:15:00
8:35 PM,77.0,60.8,57,30.01,10.0,Calm,Calm,-,N/A,,Unknown,0,2013-08-18 01:35:00
8:55 PM,75.2,60.8,61,30.01,10.0,Calm,Calm,-,N/A,,Unknown,0,2013-08-18 01:55:00
9:15 PM,73.4,60.8,65,30.02,10.0,Calm,Calm,-,N/A,,Unknown,0,2013-08-18 02:15:00
9:35 PM,73.4,60.8,65,30.03,10.0,Calm,Calm,-,N/A,,Unknown,0,2013-08-18 02:35:00
9:55 PM,71.6,62.6,73,30.03,10.0,Calm,Calm,-,N/A,,Unknown,0,2013-08-18 02:55:00
10:15 PM,71.6,60.8,69,30.04,10.0,Calm,Calm,-,N/A,,Unknown,0,2013-08-18 03:15:00
10:35 PM,71.6,60.8,69,30.04,10.0,Calm,Calm,-,N/A,,Unknown,0,2013-08-18 03:35:00
10:55 PM,69.8,60.8,73,30.04,10.0,Calm,Calm,-,N/A,,Unknown,0,2013-08-18 03:55:00
11:15 PM,69.8,60.8,73,30.04,10.0,Calm,Calm,-,N/A,,Unknown,0,2013-08-18 04:15:00
11:35 PM,69.8,60.8,73,30.05,10.0,Calm,Calm,-,N/A,,Unknown,0,2013-08-18 04:35:00
11:55 PM,69.8,60.8,73,30.05,10.0,Calm,Calm,-,N/A,,Unknown,0,2013-08-18 04:55:00